Regional Weather Roundup
Issued by NWS

Home | Current Version | Previous Version | Graphics & Text | Print | Product List | Glossary On
Versions: 1 2 3 4 5 6 7 8 9 10 11 12 13 14 15 16 17 18 19 20 21 22 23 24 25 26 27 28 29 30 31 32 33 34 35 36 37 38 39 40 41 42 43 44 45 46 47 48 49 50
000
ASUS43 KLSX 051959
RWRMO

WEATHER SUMMARY FOR MISSOURI
NATIONAL WEATHER SERVICE SPRINGFIELD MO
200 PM CST THU MAR 05 2015

NOTE: "FAIR" INDICATES FEW OR NO CLOUDS BELOW 12,000 FEET WITH NO
       SIGNIFICANT WEATHER AND/OR OBSTRUCTIONS TO VISIBILITY.
       CURRENT SKY AND/OR WEATHER CONDITIONS ARE NOT AVAILABLE FOR
       CHILLICOTHE AND FARMINGTON.

MOZ001>031-035>038-043-044-053-054-052100-
...NORTHERN AND WESTERN MISSOURI...

CITY           SKY/WX    TMP DP  RH WIND       PRES   REMARKS
KANSAS CTY INT SUNNY     29   3  33 NW7       30.51  WCI  22
KANSAS C DTWN  SUNNY     31   2  29 VRB5      30.53  WCI  26
LEE`S SUMMIT   SUNNY     29   3  33 CALM      30.52
ST JOSEPH      SUNNY     26   1  34 CALM      30.54
CHILLICOTHE      N/A     27   6  41 VRB5      30.54F WCI  22
KIRKSVILLE     SUNNY     23   2  40 MISG      30.51

$$
MOZ066>068-077>081-088>096-101>105-052100-
...SOUTHWEST MISSOURI...

CITY           SKY/WX    TMP DP  RH WIND       PRES   REMARKS
SPRINGFIELD    SUNNY     30  11  45 NW9       30.49  WCI  22
JOPLIN         SUNNY     33  14  45 VRB6      30.53  WCI  28

$$
MOZ032>034-039>042-045>050-055>058-069>072-052100-
...CENTRAL MISSOURI...

CITY           SKY/WX    TMP DP  RH WIND       PRES   REMARKS
COLUMBIA       SUNNY     27  11  51 N9        30.52  WCI  18
JEFFERSON CITY SUNNY     27   9  46 W12       30.55  WCI  17
ROLLA          SUNNY     27  10  49 N9        30.48  WCI  18
SEDALIA        SUNNY     26   9  48 N10       30.54  WCI  16
OSAGE BEACH    SUNNY     28   7  40 NW7       30.52F WCI  21

$$
MOZ051-052-059>065-052100-
...EAST CENTRAL MISSOURI...

CITY           SKY/WX    TMP DP  RH WIND       PRES   REMARKS
ST LOUIS INTL  MOSUNNY   25  10  53 NW10G18   30.54F WCI  15
SPIRIT OF STL  MOSUNNY   25  10  53 NW9       30.54  WCI  15
ST CHARLES     SUNNY     22   7  52 NW10G20   30.55  WCI  11

$$
MOZ072>076-082>087-097>100-106>115-052100-
...SOUTH CENTRAL AND SOUTHEAST MISSOURI...

CITY           SKY/WX    TMP DP  RH WIND       PRES   REMARKS
CAPE GIRARDEAU SUNNY     26   9  48 N13       30.53  WCI  15
FARMINGTON     SUNNY     27   9  46 N7        30.51F WCI  19
POPLAR BLUFF   SUNNY     33   7  33 N8        30.50  WCI  26
WEST PLAINS    SUNNY     30   6  36 NW16G25   30.48  WCI  19

$$



USA.gov is the U.S. government's official web portal to all federal, state and local government web resources and services.